Home > Time Zones > World Clock > Weather > Russia > Perm > Past weeks

Flag for Russia Weather past 2 weeks in Perm, Russia

Now
39 °F

Sunny.


Feels Like: 30 °F
Forecast: 29 / 47 °F
Wind: 17 mph from Northwest

Location: Perm'/Bolshoe Savino


UV Index: 3 (Moderate)

Visibility: 10 mi


Pressure: 30.30 "Hg

Humidity: 36%

Dew point: 14 °F

Location of PermLocation

Historic Weather in Perm

°F

Perm temperature yesterday

Maximum temperature yesterday: 63 °F (at 3:00 PM)
Minimum temperature yesterday: 36 °F (at 5:30 AM)
Average temperature yesterday: 51 °F

Past Weeks' High & Low Weather Summary

 TemperatureHumidityPressure
High63 °F (Apr 20, 3:00 PM)100% (Apr 8, 3:00 AM)30.39 "Hg (Apr 8, 3:00 AM)
Low10 °F (Apr 11, 7:00 AM)23% (Apr 19, 6:30 PM)29.39 "Hg (Apr 7, 7:00 PM)
Average37 °F62%30.03 "Hg
* Reported Apr 6 5:00 PM — Apr 21 5:30 PM, Perm, Weather by CustomWeather, © 2014

Note: Actual official high and low records may vary slightly from our data, if they occured in-between our weather recording intervals... More about our weather records

Advertising

Historic Weather Conditions — Data for Previous 24 hours

 ConditionsComfort  
Time TempWeatherWind HumidityBarometerVisibility
5:30 PM
Apr 21
39 °FSunny.20 mph36%30.30 "Hg10 mi
5:00 PM39 °FSunny.15 mph36%30.30 "Hg10 mi
4:30 PM39 °FSunny.17 mph39%30.27 "Hg10 mi
4:00 PM41 °FSunny.20 mph36%30.27 "Hg10 mi
3:30 PM39 °FSunny.17 mph39%30.27 "Hg10 mi
3:00 PM39 °FSunny.17 mph42%30.24 "Hg10 mi
2:30 PM39 °FPartly sunny.20 mph42%30.24 "HgN/A
2:00 PM39 °FPartly sunny.20 mph45%30.21 "HgN/A
1:30 PM39 °FPartly sunny.20 mph48%30.21 "HgN/A
1:00 PM39 °FSnow flurries. Partly sunny.17 mph48%30.18 "HgN/A
12:30 PM41 °FPassing clouds.17 mph36%30.15 "HgN/A
12:00 PM41 °FPartly sunny.13 mph45%30.15 "HgN/A
11:30 AM39 °FPartly sunny.17 mph52%30.15 "HgN/A
11:00 AM41 °FPartly sunny.15 mph49%30.12 "HgN/A
10:30 AM41 °FPartly sunny.13 mph53%30.09 "HgN/A
10:00 AM41 °FScattered clouds.13 mph53%30.09 "HgN/A
9:30 AM41 °FPassing clouds.8 mph53%30.09 "HgN/A
8:30 AM39 °FSunny.10 mph65%30.07 "Hg10 mi
8:00 AM37 °FSunny.8 mph70%30.07 "Hg10 mi
7:30 AM36 °FSunny.8 mph75%30.07 "Hg10 mi
7:00 AM36 °FSunny.6 mph70%30.07 "Hg10 mi
6:30 AM36 °FClear.6 mph70%30.04 "Hg10 mi
6:00 AM37 °FClear.6 mph70%30.04 "Hg10 mi
5:30 AM39 °FClear.8 mph65%30.04 "Hg10 mi
5:00 AM41 °FClear.6 mph61%30.01 "Hg10 mi
4:30 AM43 °FClear.10 mph57%30.01 "Hg10 mi
4:00 AM43 °FClear.10 mph61%30.01 "Hg10 mi
3:00 AM46 °FClear.8 mph62%29.98 "Hg10 mi
2:30 AM48 °FPassing clouds.13 mph58%29.98 "HgN/A
2:00 AM48 °FPassing clouds.13 mph54%29.98 "HgN/A
1:30 AM50 °FPartly cloudy.10 mph50%29.95 "HgN/A
1:00 AM52 °FClear.13 mph47%29.95 "Hg10 mi
12:30 AM54 °FPassing clouds.6 mph41%29.92 "HgN/A
12:00 AM55 °FClear.10 mph36%29.92 "Hg10 mi
11:30 PM
Apr 20
55 °FClear.8 mph38%29.92 "Hg10 mi
11:00 PM55 °FClear.10 mph38%29.89 "Hg10 mi
10:30 PM55 °FClear.13 mph38%29.89 "Hg10 mi
10:00 PM57 °FClear.13 mph33%29.89 "Hg10 mi
9:30 PM57 °FSunny.15 mph33%29.89 "Hg10 mi
9:00 PM57 °FSunny.17 mph33%29.89 "Hg10 mi
8:30 PM59 °FSunny.17 mph31%29.89 "Hg10 mi
8:00 PM59 °FSunny.17 mph29%29.89 "Hg10 mi
7:30 PM59 °FSunny.20 mph29%29.92 "Hg10 mi
7:00 PM59 °FSunny.20 mph29%29.92 "Hg10 mi
6:30 PM61 °FSunny.24 mph25%29.92 "Hg10 mi
6:00 PM61 °FSunny.22 mph27%29.92 "Hg10 mi
Weather by CustomWeather, © 2014

See weather overview